,,,PA_Meas_PMT16A,,PR_Meas_QMR101_102,,RH_Meas_QMH101,,SR_Meas_QMS101,,TA_Meas_QMH101,,GenWind,,GenWind,
date,time,status,PA,status,PR,status,RH,status,SR,status,TA,status,DirAvg,status,SpdAvg,
2012-03-04, 00:00:04,VALID,997.952,VALID,0,VALID,94.2105,VALID,0,VALID,24.3433,VALID,142,VALID,0.829297,
2012-03-04, 00:01:04,VALID,997.951,VALID,0,VALID,94.1724,VALID,0,VALID,24.3647,VALID,140,VALID,0.982031,
2012-03-04, 00:02:04,VALID,997.964,VALID,0,VALID,94.1571,VALID,0,VALID,24.3238,VALID,129,VALID,0.755078,
2012-03-04, 00:03:04,VALID,997.951,VALID,0,VALID,94.1419,VALID,0,VALID,24.3043,VALID,129,VALID,0.662891,
2012-03-04, 00:04:04,VALID,997.978,VALID,0,VALID,94.1114,VALID,0,VALID,24.2848,VALID,126,VALID,0.860547,
2012-03-04, 00:05:04,VALID,997.968,VALID,0,VALID,94.1114,VALID,0,VALID,24.2848,VALID,126,VALID,0.980078,
2012-03-04, 00:06:04,VALID,997.997,VALID,0,VALID,94.0961,VALID,0,VALID,24.2848,VALID,126,VALID,1.01445,
2012-03-04, 00:07:04,VALID,998.008,VALID,0,VALID,94.058,VALID,0,VALID,24.2653,VALID,126,VALID,0.828516,
2012-03-04, 00:08:04,VALID,997.998,VALID,0,VALID,94.0656,VALID,0,VALID,24.2866,VALID,126,VALID,0.98125,
2012-03-04, 00:09:04,VALID,998.002,VALID,0,VALID,94.0427,VALID,0,VALID,24.2653,VALID,126,VALID,0.844141,
2012-03-04, 00:10:04,VALID,997.994,VALID,0,VALID,94.0808,VALID,0,VALID,24.2653,VALID,126,VALID,0.763281,
2012-03-04, 00:11:04,VALID,997.984,VALID,0,VALID,94.0885,VALID,0,VALID,24.2653,VALID,110,VALID,1.11016,
2012-03-04, 00:12:04,VALID,997.983,VALID,0.5,VALID,94.058,VALID,0,VALID,24.2653,VALID,112,VALID,0.987891,
2012-03-04, 00:13:04,VALID,997.967,VALID,0,VALID,94.1037,VALID,0,VALID,24.2653,VALID,105,VALID,0.825391,
2012-03-04, 00:14:04,VALID,997.941,VALID,0,VALID,94.1571,VALID,0,VALID,24.2653,VALID,100,VALID,0.671484,
2012-03-04, 00:15:04,VALID,997.914,VALID,0,VALID,94.2105,VALID,0,VALID,24.2848,VALID,100,VALID,0.459766,
2012-03-04, 00:16:04,VALID,997.89,VALID,0,VALID,94.2563,VALID,0,VALID,24.2848,VALID,100,VALID,0.671875,
2012-03-04, 00:17:04,VALID,997.892,VALID,0,VALID,94.2792,VALID,0,VALID,24.3062,VALID,100,VALID,0.364844,
2012-03-04, 00:18:04,VALID,997.904,VALID,0,VALID,94.3174,VALID,0,VALID,24.2848,VALID,100,VALID,0.326562,
2012-03-04, 00:19:04,VALID,997.903,VALID,0,VALID,94.3479,VALID,0,VALID,24.3257,VALID,100,VALID,0.389844,
2012-03-04, 00:20:04,VALID,997.877,VALID,0,VALID,94.3555,VALID,0,VALID,24.3043,VALID,100,VALID,0.528125,
2012-03-04, 00:21:04,VALID,997.878,VALID,0,VALID,94.3631,VALID,0,VALID,24.3257,VALID,100,VALID,0.526172,
2012-03-04, 00:22:04,VALID,997.872,VALID,0,VALID,94.386,VALID,0,VALID,24.3043,VALID,100,VALID,0.665625,
2012-03-04, 00:23:04,VALID,997.844,VALID,0,VALID,94.3937,VALID,0,VALID,24.3043,VALID,100,VALID,0.766406,
2012-03-04, 00:24:04,VALID,997.839,VALID,0,VALID,94.386,VALID,0.104696,VALID,24.3043,VALID,100,VALID,0.829687,
2012-03-04, 00:25:04,VALID,997.802,VALID,0,VALID,94.4089,VALID,0,VALID,24.3043,VALID,100,VALID,0.65625,
2012-03-04, 00:26:04,VALID,997.785,VALID,0,VALID,94.4165,VALID,0,VALID,24.3257,VALID,100,VALID,0.459375,
2012-03-04, 00:27:04,VALID,997.752,VALID,0,VALID,94.4242,VALID,0,VALID,24.3452,VALID,100,VALID,0.457031,
2012-03-04, 00:28:04,VALID,997.755,VALID,0,VALID,94.4471,VALID,0,VALID,24.3238,VALID,100,VALID,0.336719,
2012-03-04, 00:29:04,VALID,997.724,VALID,0,VALID,94.4623,VALID,0,VALID,24.3452,VALID,100,VALID,0.499609,
2012-03-04, 00:30:04,VALID,997.673,VALID,0,VALID,94.47,VALID,0,VALID,24.3238,VALID,100,VALID,0.325391,
2012-03-04, 00:31:04,VALID,997.622,VALID,0,VALID,94.4623,VALID,0,VALID,24.3238,VALID,100,VALID,0.0460938,
2012-03-04, 00:32:04,VALID,997.615,VALID,0,VALID,94.47,VALID,0,VALID,24.3257,VALID,138,VALID,0.397656,
2012-03-04, 00:33:04,VALID,997.575,VALID,0,VALID,94.4623,VALID,0,VALID,24.3043,VALID,138,VALID,0,
2012-03-04, 00:34:04,VALID,997.53,VALID,0,VALID,94.4471,VALID,0,VALID,24.3043,VALID,138,VALID,0,
2012-03-04, 00:35:04,VALID,997.469,VALID,0,VALID,94.4165,VALID,0,VALID,24.3062,VALID,138,VALID,0,
2012-03-04, 00:36:04,VALID,997.431,VALID,0,VALID,94.4089,VALID,0,VALID,24.2848,VALID,138,VALID,0.660156,
2012-03-04, 00:37:04,VALID,997.38,VALID,0,VALID,94.4089,VALID,0,VALID,24.3062,VALID,155,VALID,0.662891,
2012-03-04, 00:38:04,VALID,997.4,VALID,0,VALID,94.4318,VALID,0,VALID,24.2866,VALID,155,VALID,0.845312,
2012-03-04, 00:39:04,VALID,997.344,VALID,0,VALID,94.4013,VALID,0,VALID,24.2458,VALID,155,VALID,1.02734,
2012-03-04, 00:40:04,VALID,997.325,VALID,0,VALID,94.3631,VALID,0,VALID,24.2263,VALID,153,VALID,0.977734,
2012-03-04, 00:41:04,VALID,997.308,VALID,0,VALID,94.3403,VALID,0,VALID,24.2067,VALID,153,VALID,1.20117,
2012-03-04, 00:42:04,VALID,997.295,VALID,0,VALID,94.3097,VALID,0,VALID,24.2281,VALID,141,VALID,0.758984,
2012-03-04, 00:43:04,VALID,997.296,VALID,0,VALID,94.325,VALID,0,VALID,24.2281,VALID,145,VALID,0.786719,
2012-03-04, 00:44:04,VALID,997.271,VALID,0,VALID,94.3097,VALID,0,VALID,24.2086,VALID,153,VALID,0.99375,
2012-03-04, 00:45:04,VALID,997.268,VALID,0.5,VALID,94.264,VALID,0,VALID,24.2086,VALID,159,VALID,0.973828,
2012-03-04, 00:46:04,VALID,997.242,VALID,0,VALID,94.2563,VALID,0,VALID,24.1677,VALID,165,VALID,1.18125,
2012-03-04, 00:47:04,VALID,997.243,VALID,0,VALID,94.2411,VALID,0,VALID,24.1891,VALID,170,VALID,1.12383,
2012-03-04, 00:48:04,VALID,997.247,VALID,0,VALID,94.2334,VALID,0,VALID,24.1872,VALID,174,VALID,1.41016,
2012-03-04, 00:49:04,VALID,997.242,VALID,0,VALID,94.2411,VALID,0,VALID,24.1872,VALID,182,VALID,1.65273,
2012-03-04, 00:50:04,VALID,997.207,VALID,0,VALID,94.2105,VALID,0,VALID,24.1677,VALID,171,VALID,1.42656,
2012-03-04, 00:51:04,VALID,997.226,VALID,0,VALID,94.1953,VALID,0,VALID,24.1677,VALID,173,VALID,1.14727,
2012-03-04, 00:52:04,VALID,997.188,VALID,0,VALID,94.2029,VALID,0,VALID,24.1482,VALID,166,VALID,1.34609,
2012-03-04, 00:53:04,VALID,997.191,VALID,0,VALID,94.1419,VALID,0,VALID,24.1482,VALID,164,VALID,1.33945,
2012-03-04, 00:54:04,VALID,997.201,VALID,0,VALID,94.1343,VALID,0,VALID,24.1482,VALID,164,VALID,0.919531,
2012-03-04, 00:55:04,VALID,997.184,VALID,0,VALID,94.1114,VALID,0,VALID,24.1287,VALID,164,VALID,0.89375,
2012-03-04, 00:56:04,VALID,997.186,VALID,0,VALID,94.1266,VALID,0,VALID,24.1287,VALID,164,VALID,0.715234,
2012-03-04, 00:57:04,VALID,997.179,VALID,0,VALID,94.1343,VALID,0,VALID,24.1287,VALID,163,VALID,0.673437,
2012-03-04, 00:58:04,VALID,997.173,VALID,0,VALID,94.119,VALID,0,VALID,24.1287,VALID,163,VALID,0.182812,
2012-03-04, 00:59:04,VALID,997.199,VALID,0,VALID,94.18,VALID,0,VALID,24.1092,VALID,163,VALID,0.0078125,
2012-03-04, 01:00:04,VALID,997.165,VALID,0,VALID,94.1724,VALID,0,VALID,24.1305,VALID,163,VALID,0.43125,
2012-03-04, 01:01:04,VALID,997.155,VALID,0,VALID,94.1724,VALID,0,VALID,24.111,VALID,163,VALID,0.225391,
2012-03-04, 01:02:04,VALID,997.146,VALID,0,VALID,94.1877,VALID,0,VALID,24.0897,VALID,163,VALID,0.282813,
2012-03-04, 01:03:04,VALID,997.182,VALID,0,VALID,94.2105,VALID,0,VALID,24.111,VALID,163,VALID,0.375781,
2012-03-04, 01:04:04,VALID,997.183,VALID,0,VALID,94.2182,VALID,0,VALID,24.0897,VALID,163,VALID,0.497656,
2012-03-04, 01:05:04,VALID,997.187,VALID,0,VALID,94.2105,VALID,0,VALID,24.0897,VALID,163,VALID,0.610937,
2012-03-04, 01:06:04,VALID,997.235,VALID,0,VALID,94.2411,VALID,0,VALID,24.0915,VALID,70,VALID,0.867969,
2012-03-04, 01:07:04,VALID,997.23,VALID,0,VALID,94.2716,VALID,0,VALID,24.0897,VALID,69,VALID,0.861719,
2012-03-04, 01:08:04,VALID,997.252,VALID,0,VALID,94.2945,VALID,0,VALID,24.111,VALID,55,VALID,1.0332,
2012-03-04, 01:09:04,VALID,997.271,VALID,0,VALID,94.325,VALID,0,VALID,24.0897,VALID,55,VALID,1.02578,
2012-03-04, 01:10:04,VALID,997.265,VALID,0,VALID,94.3326,VALID,0,VALID,24.111,VALID,43,VALID,1.19062,
2012-03-04, 01:11:04,VALID,997.277,VALID,0,VALID,94.3784,VALID,0,VALID,24.15,VALID,43,VALID,1.25703,
2012-03-04, 01:12:04,VALID,997.265,VALID,0,VALID,94.4547,VALID,0,VALID,24.1696,VALID,35,VALID,1.47305,
2012-03-04, 01:13:04,VALID,997.267,VALID,0,VALID,94.4776,VALID,0,VALID,24.1891,VALID,36,VALID,1.34414,
2012-03-04, 01:14:04,VALID,997.255,VALID,0,VALID,94.5234,VALID,0,VALID,24.2086,VALID,36,VALID,1.42461,
2012-03-04, 01:15:04,VALID,997.253,VALID,0,VALID,94.5462,VALID,0,VALID,24.2067,VALID,44,VALID,1.5918,
2012-03-04, 01:16:04,VALID,997.241,VALID,0,VALID,94.5691,VALID,0,VALID,24.2476,VALID,35,VALID,1.64336,
2012-03-04, 01:17:04,VALID,997.229,VALID,0,VALID,94.5768,VALID,0,VALID,24.2458,VALID,31,VALID,1.35664,
2012-03-04, 01:18:04,VALID,997.231,VALID,0,VALID,94.5997,VALID,0,VALID,24.2263,VALID,37,VALID,1.07109,
2012-03-04, 01:19:04,VALID,997.215,VALID,0,VALID,94.6073,VALID,0,VALID,24.2067,VALID,25,VALID,1.30078,
2012-03-04, 01:20:04,VALID,997.202,VALID,0,VALID,94.5691,VALID,0,VALID,24.2281,VALID,30,VALID,0.960547,
2012-03-04, 01:21:04,VALID,997.185,VALID,0,VALID,94.5691,VALID,0,VALID,24.2086,VALID,36,VALID,0.948828,
2012-03-04, 01:22:04,VALID,997.14,VALID,0,VALID,94.5615,VALID,0,VALID,24.2086,VALID,35,VALID,1.02031,
2012-03-04, 01:23:04,VALID,997.14,VALID,0,VALID,94.5234,VALID,0,VALID,24.1677,VALID,44,VALID,0.775391,
2012-03-04, 01:24:04,VALID,997.092,VALID,0,VALID,94.5234,VALID,0,VALID,24.1677,VALID,44,VALID,0.463281,
2012-03-04, 01:25:04,VALID,997.109,VALID,0,VALID,94.531,VALID,0,VALID,24.1696,VALID,47,VALID,0.855859,
2012-03-04, 01:26:04,VALID,997.08,VALID,0,VALID,94.5157,VALID,0,VALID,24.1696,VALID,54,VALID,0.651953,
2012-03-04, 01:27:04,VALID,997.043,VALID,0,VALID,94.4928,VALID,0,VALID,24.1287,VALID,54,VALID,0.649609,
2012-03-04, 01:28:04,VALID,997.007,VALID,0,VALID,94.5005,VALID,0,VALID,24.1482,VALID,54,VALID,0.709375,
2012-03-04, 01:29:04,VALID,997.009,VALID,0,VALID,94.5005,VALID,0,VALID,24.1287,VALID,54,VALID,0.4875,
2012-03-04, 01:30:04,VALID,996.998,VALID,0,VALID,94.5081,VALID,0,VALID,24.1696,VALID,54,VALID,0.323438,
2012-03-04, 01:31:04,VALID,996.98,VALID,0,VALID,94.5081,VALID,0,VALID,24.15,VALID,54,VALID,0.486719,
2012-03-04, 01:32:04,VALID,997.016,VALID,0,VALID,94.4776,VALID,0,VALID,24.1696,VALID,54,VALID,0.498047,
2012-03-04, 01:33:04,VALID,997.021,VALID,0,VALID,94.5005,VALID,0,VALID,24.15,VALID,54,VALID,0.564062,
2012-03-04, 01:34:04,VALID,997.043,VALID,0,VALID,94.5157,VALID,0,VALID,24.1482,VALID,54,VALID,0.41875,
2012-03-04, 01:35:04,VALID,997.035,VALID,0.5,VALID,94.5234,VALID,0,VALID,24.1482,VALID,54,VALID,0.58125,
2012-03-04, 01:36:04,VALID,997.045,VALID,0,VALID,94.5005,VALID,0,VALID,24.15,VALID,54,VALID,0.465625,
2012-03-04, 01:37:04,VALID,997.036,VALID,0,VALID,94.5005,VALID,0,VALID,24.1287,VALID,54,VALID,0.301172,
2012-03-04, 01:38:04,VALID,997.065,VALID,0,VALID,94.5081,VALID,0,VALID,24.15,VALID,54,VALID,0.222266,
2012-03-04, 01:39:04,VALID,997.065,VALID,0,VALID,94.5157,VALID,0,VALID,24.1287,VALID,54,VALID,0.162891,
2012-03-04, 01:40:04,VALID,997.039,VALID,0,VALID,94.531,VALID,0,VALID,24.1482,VALID,54,VALID,0.00546875,
2012-03-04, 01:41:04,VALID,997.081,VALID,0,VALID,94.531,VALID,0,VALID,24.15,VALID,54,VALID,0,
2012-03-04, 01:42:04,VALID,997.05,VALID,0,VALID,94.5234,VALID,0,VALID,24.1287,VALID,54,VALID,0,
2012-03-04, 01:43:04,VALID,997.054,VALID,0,VALID,94.5539,VALID,0,VALID,24.1287,VALID,54,VALID,0,
2012-03-04, 01:44:04,VALID,997.079,VALID,0,VALID,94.5462,VALID,0,VALID,24.1287,VALID,54,VALID,0,
2012-03-04, 01:45:04,VALID,997.061,VALID,0,VALID,94.5386,VALID,0,VALID,24.1287,VALID,54,VALID,0.0296875,
2012-03-04, 01:46:04,VALID,997.06,VALID,0,VALID,94.5615,VALID,0,VALID,24.1287,VALID,54,VALID,0.722266,
2012-03-04, 01:47:04,VALID,997.053,VALID,0,VALID,94.5615,VALID,0,VALID,24.1092,VALID,54,VALID,0.634766,
2012-03-04, 01:48:04,VALID,997.065,VALID,0,VALID,94.5691,VALID,0,VALID,24.15,VALID,54,VALID,0.536328,
2012-03-04, 01:49:04,VALID,997.064,VALID,0,VALID,94.5691,VALID,0,VALID,24.1287,VALID,54,VALID,0.651953,
2012-03-04, 01:50:04,VALID,997.06,VALID,0,VALID,94.592,VALID,0,VALID,24.1287,VALID,54,VALID,0.748438,
2012-03-04, 01:51:04,VALID,997.086,VALID,0,VALID,94.5768,VALID,0,VALID,24.1696,VALID,54,VALID,0.770703,
2012-03-04, 01:52:04,VALID,997.07,VALID,0,VALID,94.5997,VALID,0,VALID,24.1482,VALID,54,VALID,0.533203,
2012-03-04, 01:53:04,VALID,997.084,VALID,0,VALID,94.592,VALID,0,VALID,24.1677,VALID,54,VALID,0.664063,
2012-03-04, 01:54:04,VALID,997.099,VALID,0,VALID,94.5844,VALID,0,VALID,24.1677,VALID,54,VALID,0.455859,
2012-03-04, 01:55:04,VALID,997.07,VALID,0,VALID,94.5997,VALID,0,VALID,24.1677,VALID,54,VALID,0.590625,
2012-03-04, 01:56:04,VALID,997.097,VALID,0,VALID,94.5997,VALID,0,VALID,24.1677,VALID,54,VALID,0.680078,
2012-03-04, 01:57:04,VALID,997.094,VALID,0,VALID,94.592,VALID,0,VALID,24.1696,VALID,54,VALID,0.559375,
2012-03-04, 01:58:04,VALID,997.082,VALID,0,VALID,94.6073,VALID,0,VALID,24.1891,VALID,54,VALID,0.598828,
2012-03-04, 01:59:04,VALID,997.099,VALID,0,VALID,94.5997,VALID,0,VALID,24.1677,VALID,54,VALID,0.532812,
2012-03-04, 02:00:04,VALID,997.075,VALID,0,VALID,94.5997,VALID,0,VALID,24.1891,VALID,54,VALID,0.4125,
2012-03-04, 02:01:04,VALID,997.115,VALID,0,VALID,94.592,VALID,0,VALID,24.1677,VALID,54,VALID,0.602344,
2012-03-04, 02:02:04,VALID,997.103,VALID,0,VALID,94.592,VALID,0,VALID,24.1891,VALID,54,VALID,0.825391,
2012-03-04, 02:03:04,VALID,997.1,VALID,0,VALID,94.5462,VALID,0,VALID,24.1891,VALID,54,VALID,0.814453,
2012-03-04, 02:04:04,VALID,997.125,VALID,0,VALID,94.5157,VALID,0,VALID,24.1482,VALID,54,VALID,0.901172,
2012-03-04, 02:05:04,VALID,997.121,VALID,0,VALID,94.4928,VALID,0,VALID,24.1482,VALID,68,VALID,0.783203,
2012-03-04, 02:06:04,VALID,997.119,VALID,0,VALID,94.4928,VALID,0,VALID,24.15,VALID,68,VALID,1.02969,
2012-03-04, 02:07:04,VALID,997.139,VALID,0,VALID,94.4776,VALID,0,VALID,24.1696,VALID,68,VALID,0.924609,
2012-03-04, 02:08:04,VALID,997.105,VALID,0,VALID,94.47,VALID,0,VALID,24.1482,VALID,68,VALID,0.709766,
2012-03-04, 02:09:04,VALID,997.094,VALID,0,VALID,94.4852,VALID,0,VALID,24.1482,VALID,68,VALID,0.251563,
2012-03-04, 02:10:04,VALID,997.097,VALID,0,VALID,94.4928,VALID,0,VALID,24.1696,VALID,68,VALID,0.246875,
2012-03-04, 02:11:04,VALID,997.082,VALID,0,VALID,94.4928,VALID,0,VALID,24.1482,VALID,68,VALID,0.0105469,
2012-03-04, 02:12:04,VALID,997.04,VALID,0,VALID,94.5157,VALID,0,VALID,24.1696,VALID,68,VALID,0,
2012-03-04, 02:13:04,VALID,997.019,VALID,0,VALID,94.5081,VALID,0,VALID,24.1287,VALID,68,VALID,0,
2012-03-04, 02:14:04,VALID,997.02,VALID,0,VALID,94.531,VALID,0,VALID,24.1482,VALID,68,VALID,0,
2012-03-04, 02:15:04,VALID,997,VALID,0,VALID,94.5234,VALID,0,VALID,24.1482,VALID,68,VALID,0.241797,
2012-03-04, 02:16:04,VALID,996.996,VALID,0,VALID,94.5234,VALID,0,VALID,24.1696,VALID,68,VALID,0.294531,
2012-03-04, 02:17:04,VALID,997.019,VALID,0,VALID,94.5539,VALID,0,VALID,24.15,VALID,68,VALID,0.053125,
2012-03-04, 02:18:04,VALID,996.965,VALID,0,VALID,94.531,VALID,0,VALID,24.15,VALID,68,VALID,0,
2012-03-04, 02:19:04,VALID,996.926,VALID,0,VALID,94.5615,VALID,0,VALID,24.1696,VALID,68,VALID,0,
2012-03-04, 02:20:04,VALID,996.911,VALID,0,VALID,94.5462,VALID,0,VALID,24.1696,VALID,68,VALID,0,
2012-03-04, 02:21:04,VALID,996.925,VALID,0,VALID,94.5615,VALID,0,VALID,24.15,VALID,68,VALID,0.16875,
2012-03-04, 02:22:04,VALID,996.878,VALID,0,VALID,94.5768,VALID,0,VALID,24.1696,VALID,117,VALID,0.600391,
2012-03-04, 02:23:04,VALID,996.855,VALID,0,VALID,94.5691,VALID,0,VALID,24.1287,VALID,126,VALID,0.274609,
2012-03-04, 02:24:04,VALID,996.81,VALID,0,VALID,94.5539,VALID,0,VALID,24.1482,VALID,126,VALID,0.308203,
2012-03-04, 02:25:04,VALID,996.753,VALID,0,VALID,94.5768,VALID,0,VALID,24.1696,VALID,126,VALID,0.336719,
2012-03-04, 02:26:04,VALID,996.736,VALID,0,VALID,94.5768,VALID,0,VALID,24.1696,VALID,142,VALID,0.687109,
2012-03-04, 02:27:04,VALID,996.713,VALID,0,VALID,94.5691,VALID,0,VALID,24.1891,VALID,186,VALID,0.852734,
2012-03-04, 02:28:04,VALID,996.677,VALID,0,VALID,94.5691,VALID,0,VALID,24.2086,VALID,192,VALID,0.927734,
2012-03-04, 02:29:04,VALID,996.64,VALID,0,VALID,94.5462,VALID,0,VALID,24.1872,VALID,192,VALID,0.696094,
2012-03-04, 02:30:04,VALID,996.603,VALID,0,VALID,94.5386,VALID,0,VALID,24.2086,VALID,192,VALID,0.848828,
2012-03-04, 02:31:04,VALID,996.556,VALID,0,VALID,94.5234,VALID,0,VALID,24.2281,VALID,192,VALID,0.907422,
2012-03-04, 02:32:04,VALID,996.521,VALID,0,VALID,94.5005,VALID,0,VALID,24.2067,VALID,192,VALID,1.15273,
2012-03-04, 02:33:04,VALID,996.488,VALID,0,VALID,94.47,VALID,0,VALID,24.2263,VALID,192,VALID,1.23672,
2012-03-04, 02:34:04,VALID,996.477,VALID,0,VALID,94.47,VALID,0,VALID,24.2476,VALID,192,VALID,0.816797,
2012-03-04, 02:35:04,VALID,996.439,VALID,0,VALID,94.4471,VALID,0,VALID,24.2458,VALID,192,VALID,0.642578,
2012-03-04, 02:36:04,VALID,996.383,VALID,0,VALID,94.4623,VALID,0,VALID,24.2653,VALID,192,VALID,0.471875,
2012-03-04, 02:37:04,VALID,996.405,VALID,0,VALID,94.4547,VALID,0,VALID,24.2866,VALID,192,VALID,0.484766,
2012-03-04, 02:38:04,VALID,996.354,VALID,0,VALID,94.4318,VALID,0,VALID,24.2458,VALID,188,VALID,0.959766,
2012-03-04, 02:39:04,VALID,996.382,VALID,0,VALID,94.4242,VALID,0,VALID,24.2458,VALID,188,VALID,0.840234,
2012-03-04, 02:40:04,VALID,996.393,VALID,0,VALID,94.3631,VALID,0,VALID,24.2671,VALID,186,VALID,0.729297,
2012-03-04, 02:41:04,VALID,996.398,VALID,0,VALID,94.3326,VALID,0,VALID,24.2458,VALID,161,VALID,1.14414,
2012-03-04, 02:42:04,VALID,996.386,VALID,0,VALID,94.3097,VALID,0,VALID,24.2263,VALID,161,VALID,1.0082,
2012-03-04, 02:43:04,VALID,996.394,VALID,0,VALID,94.3174,VALID,0,VALID,24.2281,VALID,159,VALID,1.02031,
2012-03-04, 02:44:04,VALID,996.382,VALID,0,VALID,94.2716,VALID,0,VALID,24.2086,VALID,157,VALID,1.03984,
2012-03-04, 02:45:04,VALID,996.399,VALID,0,VALID,94.2792,VALID,0,VALID,24.1872,VALID,157,VALID,0.580078,
2012-03-04, 02:46:04,VALID,996.428,VALID,0,VALID,94.2716,VALID,0,VALID,24.1891,VALID,157,VALID,0.503516,
2012-03-04, 02:47:04,VALID,996.403,VALID,0,VALID,94.2792,VALID,0,VALID,24.2086,VALID,157,VALID,0.217578,
2012-03-04, 02:48:04,VALID,996.447,VALID,0,VALID,94.3021,VALID,0,VALID,24.1891,VALID,157,VALID,0.290625,
2012-03-04, 02:49:04,VALID,996.417,VALID,0,VALID,94.325,VALID,0,VALID,24.1891,VALID,150,VALID,0.669531,
2012-03-04, 02:50:04,VALID,996.406,VALID,0,VALID,94.3631,VALID,0,VALID,24.1891,VALID,26,VALID,0.783203,
2012-03-04, 02:51:04,VALID,996.369,VALID,0,VALID,94.3708,VALID,0,VALID,24.1696,VALID,19,VALID,1.14648,
2012-03-04, 02:52:04,VALID,996.387,VALID,0,VALID,94.3937,VALID,0,VALID,24.1482,VALID,11,VALID,1.18242,
2012-03-04, 02:53:04,VALID,996.409,VALID,0,VALID,94.4394,VALID,0,VALID,24.1287,VALID,9,VALID,1.40039,
2012-03-04, 02:54:04,VALID,996.421,VALID,0,VALID,94.47,VALID,0,VALID,24.1287,VALID,10,VALID,1.58555,
2012-03-04, 02:55:04,VALID,996.482,VALID,0,VALID,94.5234,VALID,0,VALID,24.1696,VALID,25,VALID,1.65117,
2012-03-04, 02:56:04,VALID,996.514,VALID,0,VALID,94.5386,VALID,0,VALID,24.1287,VALID,26,VALID,1.44844,
2012-03-04, 02:57:04,VALID,996.508,VALID,0,VALID,94.5615,VALID,0,VALID,24.15,VALID,22,VALID,1.99219,
2012-03-04, 02:58:04,VALID,996.561,VALID,0,VALID,94.592,VALID,0,VALID,24.15,VALID,20,VALID,1.4957,
2012-03-04, 02:59:04,VALID,996.581,VALID,0,VALID,94.6149,VALID,0,VALID,24.15,VALID,21,VALID,1.72852,
2012-03-04, 03:00:04,VALID,996.592,VALID,0,VALID,94.6454,VALID,0,VALID,24.1092,VALID,19,VALID,1.25977,
2012-03-04, 03:01:04,VALID,996.602,VALID,0,VALID,94.6226,VALID,0,VALID,24.1092,VALID,17,VALID,1.74727,
2012-03-04, 03:02:04,VALID,996.619,VALID,0,VALID,94.6531,VALID,0,VALID,24.1305,VALID,19,VALID,1.46914,
2012-03-04, 03:03:04,VALID,996.633,VALID,0,VALID,94.6378,VALID,0,VALID,24.0897,VALID,20,VALID,1.26953,
2012-03-04, 03:04:04,VALID,996.622,VALID,0,VALID,94.6531,VALID,0,VALID,24.0915,VALID,14,VALID,1.70352,
2012-03-04, 03:05:04,VALID,996.614,VALID,0,VALID,94.6531,VALID,0,VALID,24.0915,VALID,17,VALID,0.975,
2012-03-04, 03:06:04,VALID,996.631,VALID,0,VALID,94.6607,VALID,0,VALID,24.0701,VALID,4,VALID,1.04844,
2012-03-04, 03:07:04,VALID,996.601,VALID,0,VALID,94.6607,VALID,0,VALID,24.0506,VALID,4,VALID,0.578125,
2012-03-04, 03:08:04,VALID,996.591,VALID,0,VALID,94.6531,VALID,0,VALID,24.0506,VALID,4,VALID,0.675391,
2012-03-04, 03:09:04,VALID,996.577,VALID,0,VALID,94.6912,VALID,0,VALID,24.0506,VALID,4,VALID,0.176953,
2012-03-04, 03:10:04,VALID,996.569,VALID,0,VALID,94.6836,VALID,0,VALID,24.0506,VALID,1,VALID,0.573828,
2012-03-04, 03:11:04,VALID,996.553,VALID,0,VALID,94.6912,VALID,0,VALID,24.0506,VALID,1,VALID,0.209375,
2012-03-04, 03:12:04,VALID,996.556,VALID,0,VALID,94.6607,VALID,0,VALID,24.0525,VALID,1,VALID,0.241016,
2012-03-04, 03:13:04,VALID,996.567,VALID,0,VALID,94.6988,VALID,0,VALID,24.0311,VALID,1,VALID,0.257813,
2012-03-04, 03:14:04,VALID,996.532,VALID,0,VALID,94.6836,VALID,0,VALID,24.0525,VALID,1,VALID,0.345703,
2012-03-04, 03:15:04,VALID,996.591,VALID,0,VALID,94.6836,VALID,0,VALID,24.0525,VALID,1,VALID,0.133984,
2012-03-04, 03:16:04,VALID,996.555,VALID,0,VALID,94.6836,VALID,0,VALID,24.0525,VALID,1,VALID,0,
2012-03-04, 03:17:04,VALID,996.566,VALID,0,VALID,94.6836,VALID,0,VALID,24.0525,VALID,1,VALID,0,
2012-03-04, 03:18:04,VALID,996.555,VALID,0,VALID,94.6912,VALID,0,VALID,24.0311,VALID,1,VALID,0,
2012-03-04, 03:19:04,VALID,996.566,VALID,0,VALID,94.6912,VALID,0,VALID,24.0506,VALID,1,VALID,0,
2012-03-04, 03:20:04,VALID,996.55,VALID,0,VALID,94.6988,VALID,0,VALID,24.0506,VALID,1,VALID,0.243359,
2012-03-04, 03:21:04,VALID,996.568,VALID,0,VALID,94.6988,VALID,0,VALID,24.0506,VALID,1,VALID,0.338672,
2012-03-04, 03:22:04,VALID,996.6,VALID,0,VALID,94.6836,VALID,0,VALID,24.0701,VALID,1,VALID,0.338281,
2012-03-04, 03:23:04,VALID,996.613,VALID,0,VALID,94.7217,VALID,0,VALID,24.0915,VALID,51,VALID,0.711328,
2012-03-04, 03:24:04,VALID,996.64,VALID,0,VALID,94.6988,VALID,0,VALID,24.0897,VALID,51,VALID,0.592969,
2012-03-04, 03:25:05,VALID,996.628,VALID,0,VALID,94.7065,VALID,0,VALID,24.1092,VALID,51,VALID,0.512891,
2012-03-04, 03:26:05,VALID,996.674,VALID,0,VALID,94.7217,VALID,0,VALID,24.0897,VALID,55,VALID,0.713281,
2012-03-04, 03:27:05,VALID,996.702,VALID,0,VALID,94.737,VALID,0,VALID,24.1092,VALID,56,VALID,0.284766,
2012-03-04, 03:28:05,VALID,996.71,VALID,0,VALID,94.7446,VALID,0,VALID,24.1092,VALID,56,VALID,0.24375,
2012-03-04, 03:29:05,VALID,996.722,VALID,0,VALID,94.7294,VALID,0,VALID,24.1287,VALID,56,VALID,0.265625,
2012-03-04, 03:30:05,VALID,996.699,VALID,0,VALID,94.737,VALID,0,VALID,24.1287,VALID,56,VALID,0.360156,
2012-03-04, 03:31:05,VALID,996.696,VALID,0,VALID,94.7294,VALID,0,VALID,24.1482,VALID,56,VALID,0.146875,
2012-03-04, 03:32:05,VALID,996.659,VALID,0,VALID,94.7523,VALID,0,VALID,24.1482,VALID,56,VALID,0.196094,
2012-03-04, 03:33:05,VALID,996.682,VALID,0,VALID,94.7141,VALID,0,VALID,24.1482,VALID,56,VALID,0,
2012-03-04, 03:34:05,VALID,996.688,VALID,0,VALID,94.7294,VALID,0,VALID,24.1482,VALID,54,VALID,0,
2012-03-04, 03:35:05,VALID,996.702,VALID,0,VALID,94.737,VALID,0,VALID,24.1482,VALID,54,VALID,0,
2012-03-04, 03:36:05,VALID,996.687,VALID,0,VALID,94.7141,VALID,0,VALID,24.1287,VALID,45,VALID,0.675781,
2012-03-04, 03:37:05,VALID,996.713,VALID,0,VALID,94.7065,VALID,0,VALID,24.1287,VALID,34,VALID,0.769922,
2012-03-04, 03:38:05,VALID,996.703,VALID,0,VALID,94.7065,VALID,0,VALID,24.1287,VALID,28,VALID,0.971094,
2012-03-04, 03:39:05,VALID,996.729,VALID,0,VALID,94.6988,VALID,0,VALID,24.1287,VALID,30,VALID,1.04102,
2012-03-04, 03:40:05,VALID,996.726,VALID,0,VALID,94.7141,VALID,0,VALID,24.1092,VALID,30,VALID,1.05977,
2012-03-04, 03:41:05,VALID,996.734,VALID,0,VALID,94.6988,VALID,0.104696,VALID,24.1092,VALID,30,VALID,1.18828,
2012-03-04, 03:42:05,VALID,996.724,VALID,0,VALID,94.7065,VALID,0,VALID,24.0897,VALID,39,VALID,1.28906,
2012-03-04, 03:43:05,VALID,996.766,VALID,0,VALID,94.6988,VALID,0,VALID,24.0897,VALID,37,VALID,0.997266,
2012-03-04, 03:44:05,VALID,996.73,VALID,0,VALID,94.7217,VALID,0,VALID,24.0897,VALID,37,VALID,0.903125,
2012-03-04, 03:45:05,VALID,996.76,VALID,0,VALID,94.737,VALID,0,VALID,24.1092,VALID,37,VALID,1.16523,
2012-03-04, 03:46:05,VALID,996.771,VALID,0,VALID,94.7141,VALID,0,VALID,24.1092,VALID,37,VALID,0.890625,
2012-03-04, 03:47:05,VALID,996.778,VALID,0,VALID,94.7523,VALID,0,VALID,24.1092,VALID,30,VALID,1.07422,